Location: Yellowknife
(62.4500°N, 114.3500°W)
Time: 00:45:42
(UTC-06:00)

Amateur Radio Satellites - All Passes

Search period start: 24 August 2016 00:15
Search period end: 25 August 2016 00:15
Location: Yellowknife, 62.4500°N, 114.3500°W

Satellite Date Start Highest point End Downlink Frequencies (MHz)
Time Altitude Azimuth
QB50P1 24 Aug 00:19:12 00:22:24 20° 88° (E) 00:25:33 145.935-145.965
UNISAT 6 24 Aug 00:27:54 00:32:20 79° 107° (ESE) 00:36:40 437.425
POPSAT HIP 1 24 Aug 00:28:39 00:32:06 23° 90° (E) 00:35:30 437.405
AISAT 24 Aug 00:29:12 00:33:38 61° 256° (WSW) 00:38:07 437.250
BEESAT 24 Aug 00:30:00 00:33:20 19° 40° (NE) 00:36:42 436.000
SPROUT 24 Aug 00:32:30 00:36:50 87° 69° (ENE) 00:41:12 437.525
STRAND 1 24 Aug 00:32:41 00:35:44 16° 329° (NNW) 00:38:46 437.568
HUMSAT D 24 Aug 00:36:11 00:38:09 13° 278° (W) 00:40:05 437.325/437.525
BUGSAT 1 24 Aug 00:40:06 00:42:35 15° 83° (E) 00:45:03 437.445
QB50P2 24 Aug 00:57:42 01:01:42 38° 97° (E) 01:05:40 145.880/145.840
PRISM 24 Aug 00:58:47 01:01:48 20° 314° (NW) 01:04:50 437.425
POLYITAN 1 24 Aug 01:00:14 01:04:15 38° 97° (E) 01:08:13 437.675
DUCHIFAT 1 24 Aug 01:01:26 01:05:22 35° 96° (E) 01:09:15 145.980
UKube-1 24 Aug 01:02:02 01:06:18 54° 257° (WSW) 01:10:36 .
JAS-2 24 Aug 01:03:32 01:09:05 33° 91° (E) 01:15:14 435.910
ANTELSAT 24 Aug 01:05:11 01:09:33 60° 295° (WNW) 01:13:48 437.575/2403.000
TISAT 1 24 Aug 01:07:29 01:11:41 61° 65° (ENE) 01:15:55 437.305
CUSAT 1 24 Aug 01:07:56 01:10:56 45° 98° (E) 01:14:45 437.405
NANOSAT C BR1 24 Aug 01:13:00 01:17:07 45° 99° (E) 01:21:10 145.865
ITUPSAT 1 24 Aug 01:13:21 01:17:28 30° 50° (NE) 01:21:35 437.325
O/OREOS (USA 219) 24 Aug 01:15:01 01:19:17 39° 244° (WSW) 01:23:34 437.305
VELOX 1 24 Aug 01:17:53 01:21:51 30° 266° (W) 01:25:50 145.980
SO-50 24 Aug 01:21:11 01:23:34 14° 115° (ESE) 01:25:56 436.795
MOZHAYETS 4 24 Aug 01:23:13 01:25:20 13° 33° (NNE) 01:27:27
DANDE 24 Aug 01:24:57 01:27:01 20° 91° (E) 01:29:16 436.750
Oscar 19 24 Aug 01:30:11 01:32:52 14° 78° (ENE) 01:35:32 437.125/150
50 SAT 24 Aug 01:30:57 01:33:35 19° 270° (W) 01:36:15 437.505
CUBEBUG 1 24 Aug 01:32:07 01:35:36 22° 271° (W) 01:39:08 437.445
Cosmos 2491 24 Aug 01:35:56 01:42:13 21° 2° (N) 01:48:32 435.465 / 435.565
TIGRISAT 24 Aug 01:37:36 01:41:42 39° 302° (WNW) 01:45:43 435.000
ESTCUBE 1 24 Aug 01:42:07 01:44:52 16° 277° (W) 01:47:37 437.505/2401.250
KKS-1 24 Aug 01:47:57 01:50:37 16° 37° (NE) 01:53:17 437.445
SWISSCUBE 24 Aug 01:48:11 01:52:45 48° 59° (ENE) 01:57:20 437.505
DX 1 24 Aug 01:50:33 01:54:02 23° 270° (W) 01:57:34 434.975-435.025
QB50P1 24 Aug 01:54:29 01:58:46 89° 304° (NW) 02:03:02 145.935-145.965
GONETS M04 24 Aug 01:55:34 02:03:37 41° 278° (W) 02:11:39
RS-15 24 Aug 02:02:31 02:11:29 27° 101° (E) 02:20:42 29.354- 29.394
POPSAT HIP 1 24 Aug 02:04:06 02:08:24 78° 291° (WNW) 02:12:38 437.405
UNISAT 6 24 Aug 02:05:00 02:08:44 27° 309° (NW) 02:12:22 437.425
BEESAT 24 Aug 02:05:42 02:10:22 57° 62° (ENE) 02:15:03 436.000
Gurwin Techsat 1B 24 Aug 02:06:06 02:08:55 14° 78° (ENE) 02:11:43 435.225
Cosmos 2499 24 Aug 02:06:10 02:12:36 36° 277° (W) 02:18:52 435.465 / 435.565
AISAT 24 Aug 02:08:33 02:11:04 15° 278° (W) 02:13:34 437.250
SPROUT 24 Aug 02:10:03 02:13:22 21° 272° (W) 02:16:42 437.525
BUGSAT 1 24 Aug 02:14:33 02:18:47 69° 104° (ESE) 02:22:57 437.445
CUBESAT XI-V 24 Aug 02:32:21 02:33:57 12° 29° (NNE) 02:35:34 437.345
QB50P2 24 Aug 02:33:33 02:37:39 47° 299° (WNW) 02:41:44 145.880/145.840
STARS 24 Aug 02:35:02 02:38:05 18° 42° (NE) 02:41:08 437.465
POLYITAN 1 24 Aug 02:36:06 02:40:12 47° 299° (WNW) 02:44:15 437.675
DUCHIFAT 1 24 Aug 02:37:07 02:41:15 50° 298° (WNW) 02:45:19 145.980
UKube-1 24 Aug 02:41:29 02:43:22 12° 279° (W) 02:45:14 .
ANTELSAT 24 Aug 02:42:34 02:45:33 18° 317° (NW) 02:48:30 437.575/2403.000
TISAT 1 24 Aug 02:43:54 02:47:40 29° 266° (W) 02:51:27 437.305
JAS-2 24 Aug 02:48:38 02:54:46 84° 293° (WNW) 03:01:45 435.910
NANOSAT C BR1 24 Aug 02:48:53 02:52:53 40° 301° (WNW) 02:56:50 145.865
ITUPSAT 1 24 Aug 02:50:11 02:54:59 80° 250° (WSW) 02:59:48 437.325
CUSAT 1 24 Aug 02:50:18 02:53:14 28° 308° (NW) 02:56:52 437.405
MOZHAYETS 4 24 Aug 02:57:17 03:01:26 35° 56° (NE) 03:05:36
SO-50 24 Aug 02:58:29 03:03:03 43° 137° (SE) 03:07:34 436.795
AO-7 24 Aug 03:06:34 03:10:32 14° 70° (ENE) 03:14:28 29.400- 29.500
DANDE 24 Aug 03:07:02 03:09:33 36° 299° (WNW) 03:12:28 436.750
Oscar 19 24 Aug 03:08:20 03:13:27 52° 101° (E) 03:18:32 437.125/150
TIGRISAT 24 Aug 03:15:14 03:17:25 14° 324° (NW) 03:19:33 435.000
KKS-1 24 Aug 03:22:01 03:26:18 45° 59° (ENE) 03:30:36 437.445
SWISSCUBE 24 Aug 03:26:07 03:30:40 44° 261° (W) 03:35:15 437.505
QB50P1 24 Aug 03:30:45 03:34:08 23° 311° (NW) 03:37:30 145.935-145.965
Cosmos 2491 24 Aug 03:35:16 03:42:45 29° 34° (NE) 03:50:13 435.465 / 435.565
POPSAT HIP 1 24 Aug 03:40:26 03:43:40 21° 313° (NW) 03:46:52 437.405
UNISAT 6 24 Aug 03:43:22 03:44:12 10° 332° (NNW) 03:45:01 437.425
BEESAT 24 Aug 03:44:00 03:48:25 36° 264° (W) 03:52:51 436.000
Gurwin Techsat 1B 24 Aug 03:44:56 03:50:09 52° 101° (E) 03:55:21 435.225
STRAND 1 24 Aug 03:48:48 03:50:20 11° 17° (NNE) 03:51:52 437.568
BUGSAT 1 24 Aug 03:50:16 03:53:55 29° 307° (NW) 03:57:31 437.445
GONETS M04 24 Aug 03:53:38 03:57:56 15° 305° (NW) 04:02:16
Cosmos 2499 24 Aug 04:01:47 04:03:27 11° 303° (WNW) 04:05:07 435.465 / 435.565
CUBESAT XI-V 24 Aug 04:06:07 04:10:06 29° 52° (NE) 04:14:07 437.345
STARS 24 Aug 04:09:21 04:13:44 58° 64° (ENE) 04:18:07 437.465
RS-15 24 Aug 04:10:01 04:21:29 61° 129° (SE) 04:33:26 29.354- 29.394
QB50P2 24 Aug 04:10:11 04:12:38 15° 320° (NW) 04:15:05 145.880/145.840
POLYITAN 1 24 Aug 04:12:45 04:15:11 15° 320° (NW) 04:17:35 437.675
ITAMSAT 1 24 Aug 04:13:19 04:18:06 35° 95° (E) 04:22:50 435.822/435.867
DUCHIFAT 1 24 Aug 04:13:38 04:16:09 16° 319° (NW) 04:18:39 145.980
NANOSAT C BR1 24 Aug 04:25:35 04:27:42 14° 323° (NW) 04:29:47 145.865
ITUPSAT 1 24 Aug 04:30:06 04:33:36 20° 274° (W) 04:37:07 437.325
MOZHAYETS 4 24 Aug 04:33:58 04:38:29 59° 257° (WSW) 04:43:02
JAS-2 24 Aug 04:34:09 04:39:23 32° 314° (NW) 04:45:11 435.910
CUSAT 1 24 Aug 04:36:24 04:37:00 10° 337° (NNW) 04:37:37 437.405
SO-50 24 Aug 04:38:31 04:43:22 86° 340° (NNW) 04:48:08 436.795
Oscar 19 24 Aug 04:47:50 04:52:49 46° 303° (WNW) 04:57:47 437.125/150
AO-7 24 Aug 04:58:09 05:05:59 42° 96° (E) 05:13:45 29.400- 29.500
KKS-1 24 Aug 04:58:38 05:02:57 44° 261° (W) 05:07:17 437.445
SWISSCUBE 24 Aug 05:08:30 05:09:45 11° 283° (WNW) 05:11:01 437.505
YUBILEINY 24 Aug 05:11:31 05:16:24 16° 58° (ENE) 05:21:17 435.215
STRAND 1 24 Aug 05:24:05 05:27:58 22° 41° (NE) 05:31:51 437.568
Gurwin Techsat 1B 24 Aug 05:25:04 05:30:10 47° 303° (WNW) 05:35:14 435.225
BUGSAT 1 24 Aug 05:27:16 05:28:09 11° 329° (NNW) 05:29:02 437.445
Cosmos 2491 24 Aug 05:32:55 05:41:41 61° 64° (ENE) 05:50:26 435.465 / 435.565
CUBESAT XI-V 24 Aug 05:42:32 05:47:10 77° 254° (WSW) 05:51:51 437.345
STARS 24 Aug 05:46:21 05:50:22 33° 265° (W) 05:54:26 437.465
ITAMSAT 1 24 Aug 05:52:48 05:57:57 65° 297° (WNW) 06:03:04 435.822/435.867
HORYU 2 24 Aug 06:01:09 06:04:49 25° 91° (E) 06:08:28 437.375
Cosmos 2504 24 Aug 06:07:11 06:09:48 12° 57° (ENE) 06:12:22 435.465 / 435.565
Cubesat XI-IV 24 Aug 06:11:45 06:13:41 12° 75° (ENE) 06:15:37 437.490
MOZHAYETS 4 24 Aug 06:14:13 06:16:39 14° 279° (W) 06:19:07
GOMX 1 24 Aug 06:17:23 06:20:35 15° 76° (ENE) 06:23:44 467.674
SO-50 24 Aug 06:19:22 06:24:09 68° 2° (N) 06:28:50 436.795
JAS-2 24 Aug 06:19:30 06:23:00 16° 338° (NNW) 06:26:43 435.910
BRITE-PL 24 Aug 06:19:36 06:24:15 26° 86° (E) 06:28:57 437.365/2234.400
RS-15 24 Aug 06:21:38 06:33:41 87° 338° (NNW) 06:46:10 29.354- 29.394
CUTE-I 24 Aug 06:24:20 06:27:12 14° 79° (ENE) 06:30:03 437.470
Oscar 19 24 Aug 06:27:41 06:31:10 18° 325° (NW) 06:34:39 437.125/150
NOAA 18 24 Aug 06:29:53 06:32:51 14° 79° (E) 06:35:47 137.9125
NOAA 15 24 Aug 06:38:32 06:42:27 20° 85° (E) 06:46:22 137.62
KKS-1 24 Aug 06:39:58 06:40:44 10° 283° (WNW) 06:41:29 437.445
DOVE 4 24 Aug 06:45:18 06:47:37 13° 74° (ENE) 06:49:53 437.250
AO-7 24 Aug 06:51:11 06:59:34 81° 301° (WNW) 07:07:53 29.400- 29.500
LilacSat-2 24 Aug 06:55:02 06:57:34 17° 86° (E) 07:00:04 437.200
AO-85 24 Aug 06:59:08 07:01:46 14° 115° (ESE) 07:04:20 145.980
STRAND 1 24 Aug 07:01:23 07:06:26 64° 63° (ENE) 07:11:30 437.568
YUBILEINY 24 Aug 07:02:42 07:10:55 45° 85° (E) 07:19:07 435.215
Gurwin Techsat 1B 24 Aug 07:05:30 07:09:07 19° 326° (NW) 07:12:43 435.225
PRISM 24 Aug 07:13:38 07:16:39 20° 46° (NE) 07:19:42 437.425
CUBESAT XI-V 24 Aug 07:22:07 07:25:22 19° 276° (W) 07:28:38 437.345
HO-68 24 Aug 07:28:57 07:32:04 13° 70° (ENE) 07:35:10 435.675
ANTELSAT 24 Aug 07:29:39 07:30:23 10° 28° (NNE) 07:31:06 437.575/2403.000
Cosmos 2491 24 Aug 07:30:07 07:38:38 56° 270° (W) 07:47:09 435.465 / 435.565
ITAMSAT 1 24 Aug 07:32:43 07:36:42 23° 320° (NW) 07:40:41 435.822/435.867
HORYU 2 24 Aug 07:37:26 07:41:54 77° 291° (WNW) 07:46:18 437.375
Cubesat XI-IV 24 Aug 07:50:06 07:55:14 44° 98° (E) 08:00:19 437.490
Cosmos 2504 24 Aug 07:53:38 08:00:55 36° 82° (E) 08:07:47 435.465 / 435.565
GOMX 1 24 Aug 07:54:29 07:59:55 53° 99° (E) 08:05:15 467.674
CINEMA 3 24 Aug 07:55:32 07:57:58 14° 78° (ENE) 08:00:20 145.822/145.860
BRITE-PL 24 Aug 07:57:48 08:03:27 85° 105° (ESE) 08:09:12 437.365/2234.400
TIGRISAT 24 Aug 07:59:55 08:02:05 13° 35° (NE) 08:04:14 435.000
SO-50 24 Aug 08:00:06 08:04:52 83° 206° (SSW) 08:09:30 436.795
CUTE-I 24 Aug 08:03:18 08:08:32 53° 101° (ESE) 08:13:44 437.470
JAS-2 24 Aug 08:03:30 08:06:01 13° 4° (N) 08:08:38 435.910
CUSAT 1 24 Aug 08:03:32 08:05:54 13° 32° (NNE) 08:08:31 437.405
Oscar 19 24 Aug 08:07:45 08:08:46 11° 349° (N) 08:09:46 437.125/150
NOAA 18 24 Aug 08:09:28 08:14:52 52° 102° (ESE) 08:20:13 137.9125
CANX-2 24 Aug 08:12:02 08:14:17 14° 82° (E) 08:16:34 2200.000
NOAA 15 24 Aug 08:17:49 08:23:10 74° 107° (ESE) 08:28:29 137.62
CUTE 1.7 + AOD 2 24 Aug 08:18:55 08:21:14 14° 82° (E) 08:23:33 437.475
DOVE 4 24 Aug 08:21:34 08:26:41 47° 97° (E) 08:31:36 437.250
UNISAT 6 24 Aug 08:26:00 08:29:01 18° 42° (NE) 08:32:01 437.425
LilacSat-2 24 Aug 08:28:38 08:32:29 87° 103° (ESE) 08:36:16 437.200
RS-15 24 Aug 08:34:46 08:47:01 82° 11° (N) 08:59:30 29.354- 29.394
AO-85 24 Aug 08:36:29 08:41:19 43° 136° (SE) 08:45:50 145.980
STRAND 1 24 Aug 08:41:18 08:45:58 35° 265° (W) 08:50:41 437.568
CUBEBUG 2 24 Aug 08:41:18 08:42:27 11° 77° (ENE) 08:43:35 437.445
AAUSAT CUBESAT 2 24 Aug 08:42:21 08:43:30 11° 79° (E) 08:44:38 437.432
AO-7 24 Aug 08:44:05 08:51:38 41° 327° (NNW) 08:59:11 29.400- 29.500
COMPASS 1 24 Aug 08:45:36 08:47:47 14° 82° (E) 08:49:56 437.405
Gurwin Techsat 1B 24 Aug 08:45:55 08:47:19 11° 350° (N) 08:48:44 435.225
PRISM 24 Aug 08:47:19 08:51:26 74° 67° (ENE) 08:55:35 437.425
QB50P2 24 Aug 08:54:03 08:54:45 10° 30° (NNE) 08:55:27 145.880/145.840
POLYITAN 1 24 Aug 08:56:31 08:57:17 10° 30° (NNE) 08:58:03 437.675
YUBILEINY 24 Aug 08:58:31 09:07:23 74° 291° (WNW) 09:16:17 435.215
ANTELSAT 24 Aug 09:02:04 09:05:50 26° 51° (NE) 09:09:33 437.575/2403.000
NANOSAT C BR1 24 Aug 09:08:14 09:09:33 11° 33° (NNE) 09:10:54 145.865
ITAMSAT 1 24 Aug 09:12:48 09:14:38 12° 343° (NNW) 09:16:28 435.822/435.867
HORYU 2 24 Aug 09:14:29 09:17:55 22° 314° (NW) 09:21:20 437.375
HO-68 24 Aug 09:15:14 09:22:01 41° 96° (E) 09:28:44 435.675
Cosmos 2491 24 Aug 09:27:42 09:33:36 21° 296° (WNW) 09:39:32 435.465 / 435.565
Cubesat XI-IV 24 Aug 09:30:18 09:35:31 54° 300° (WNW) 09:40:41 437.490
CINEMA 3 24 Aug 09:31:30 09:36:15 55° 101° (E) 09:40:44 145.822/145.860
GOMX 1 24 Aug 09:32:43 09:38:01 48° 301° (WNW) 09:43:14 467.674
SEEDS 24 Aug 09:33:27 09:37:22 36° 96° (E) 09:41:16 437.485
TIGRISAT 24 Aug 09:33:34 09:37:47 37° 57° (ENE) 09:41:55 435.000
BRITE-PL 24 Aug 09:36:37 09:41:31 33° 309° (NW) 09:46:33 437.365/2234.400
SO-50 24 Aug 09:40:47 09:45:00 33° 229° (SW) 09:49:04 436.795
CUTE-I 24 Aug 09:43:32 09:48:38 46° 303° (WNW) 09:53:41 437.470
Oscar 19 24 Aug 09:44:42 09:46:05 11° 14° (NNE) 09:47:30 437.125/150
CUSAT 1 24 Aug 09:44:50 09:49:21 33° 55° (NE) 09:55:01 437.405
JAS-2 24 Aug 09:45:20 09:49:08 20° 30° (NNE) 09:53:11 435.910
Cosmos 2504 24 Aug 09:45:24 09:53:46 85° 287° (WNW) 10:01:32 435.465 / 435.565
CANX-2 24 Aug 09:46:48 09:51:02 63° 103° (ESE) 09:55:15 2200.000
QB50P1 24 Aug 09:47:53 09:50:43 17° 43° (NE) 09:53:33 145.935-145.965
NOAA 18 24 Aug 09:50:18 09:55:37 49° 304° (NW) 10:00:52 137.9125
CUTE 1.7 + AOD 2 24 Aug 09:53:43 09:57:57 64° 104° (ESE) 10:02:09 437.475
POPSAT HIP 1 24 Aug 09:57:13 10:00:15 19° 45° (NE) 10:03:18 437.405
NOAA 15 24 Aug 09:57:54 10:02:42 35° 309° (NW) 10:07:29 137.62
DOVE 4 24 Aug 09:59:22 10:04:29 50° 299° (WNW) 10:09:25 437.250
UNISAT 6 24 Aug 10:00:31 10:05:01 55° 63° (ENE) 10:09:25 437.425
LilacSat-2 24 Aug 10:03:30 10:06:24 21° 309° (NW) 10:09:16 437.200
DANDE 24 Aug 10:05:16 10:08:12 19° 51° (NE) 10:11:43 436.750
BUGSAT 1 24 Aug 10:06:43 10:08:59 14° 38° (NE) 10:11:15 437.445
AAUSAT CUBESAT 2 24 Aug 10:15:57 10:20:00 49° 100° (E) 10:24:04 437.432
CUBEBUG 2 24 Aug 10:15:58 10:20:16 48° 99° (E) 10:24:24 437.445
AO-85 24 Aug 10:16:35 10:21:38 86° 335° (NNW) 10:26:17 145.980
COMPASS 1 24 Aug 10:20:03 10:24:13 62° 104° (ESE) 10:28:21 437.405
AIST 1 24 Aug 10:21:40 10:25:37 35° 91° (E) 10:29:37
UWE-3 24 Aug 10:21:57 10:26:03 40° 97° (E) 10:30:02 435.000/436.395/437.385
Gurwin Techsat 1B 24 Aug 10:23:28 10:25:16 12° 15° (NNE) 10:27:04 435.225
PRISM 24 Aug 10:23:52 10:27:12 23° 269° (W) 10:30:34 437.425
Oscar 11 24 Aug 10:24:02 10:27:55 31° 94° (E) 10:31:48 145.826/435.025
QB50P2 24 Aug 10:25:45 10:29:23 27° 52° (NE) 10:33:02 145.880/145.840
FUNcube-1 24 Aug 10:26:13 10:30:00 30° 93° (E) 10:33:43 145.935
POLYITAN 1 24 Aug 10:28:16 10:31:56 28° 53° (NE) 10:35:34 437.675
DUCHIFAT 1 24 Aug 10:28:54 10:32:26 26° 52° (NE) 10:35:59 145.980
HUMSAT D 24 Aug 10:31:04 10:32:52 12° 81° (E) 10:34:39 437.325/437.525
AO-7 24 Aug 10:35:58 10:42:41 29° 353° (N) 10:49:24 29.400- 29.500
ANTELSAT 24 Aug 10:37:34 10:42:11 87° 256° (WSW) 10:46:42 437.575/2403.000
NANOSAT C BR1 24 Aug 10:40:26 10:44:13 31° 55° (NE) 10:47:59 145.865
ZACube-1 24 Aug 10:45:23 10:49:29 43° 98° (E) 10:53:29 437.345
RS-15 24 Aug 10:47:35 10:59:45 72° 222° (SW) 11:11:58 29.354- 29.394
ITAMSAT 1 24 Aug 10:51:15 10:52:09 10° 8° (N) 10:53:04 435.822/435.867
DELFI C3 24 Aug 10:52:47 10:56:15 28° 93° (E) 10:59:43 145.870
YUBILEINY 24 Aug 10:58:02 11:05:52 34° 319° (NW) 11:13:43 435.215
HO-68 24 Aug 11:03:07 11:10:19 75° 300° (WNW) 11:17:28 435.675
CINEMA 3 24 Aug 11:08:50 11:13:18 38° 303° (WNW) 11:17:33 145.822/145.860
SEEDS 24 Aug 11:09:11 11:13:14 47° 297° (WNW) 11:17:16 437.485
TIGRISAT 24 Aug 11:09:53 11:14:24 55° 258° (WSW) 11:18:51 435.000
Cubesat XI-IV 24 Aug 11:10:51 11:14:43 21° 323° (NW) 11:18:35 437.490
GOMX 1 24 Aug 11:11:17 11:15:03 19° 323° (NW) 11:18:49 467.674
Cosmos 2499 24 Aug 11:14:30 11:18:12 14° 62° (ENE) 11:21:49 435.465 / 435.565
BRITE-PL 24 Aug 11:15:40 11:18:39 15° 331° (NNW) 11:21:42 437.365/2234.400
Oscar 19 24 Aug 11:20:02 11:23:46 20° 38° (NE) 11:27:30 437.125/150
GONETS M04 24 Aug 11:20:12 11:26:21 22° 65° (ENE) 11:32:32
QB50P1 24 Aug 11:21:35 11:25:48 58° 64° (ENE) 11:30:02 145.935-145.965
CANX-2 24 Aug 11:23:00 11:26:42 30° 305° (NW) 11:30:25 2200.000
CUTE-I 24 Aug 11:24:05 11:27:41 19° 326° (NNW) 11:31:16 437.470
BEESAT 3 24 Aug 11:26:24 11:27:34 11° 116° (ESE) 11:28:43 437.485
CUSAT 1 24 Aug 11:26:40 11:31:47 81° 255° (WSW) 11:38:28 437.405
JAS-2 24 Aug 11:28:00 11:33:03 47° 55° (NE) 11:38:36 435.910
CUTE 1.7 + AOD 2 24 Aug 11:29:54 11:33:36 30° 305° (NW) 11:37:16 437.475
POPSAT HIP 1 24 Aug 11:31:10 11:35:26 66° 67° (ENE) 11:39:42 437.405
NOAA 18 24 Aug 11:31:21 11:35:17 20° 327° (NNW) 11:39:13 137.9125
DOVE 4 24 Aug 11:37:34 11:41:12 19° 322° (NW) 11:44:47 437.250
UNISAT 6 24 Aug 11:37:45 11:41:58 35° 265° (W) 11:46:08 437.425
NOAA 15 24 Aug 11:38:11 11:41:16 16° 332° (NNW) 11:44:20 137.62
BUGSAT 1 24 Aug 11:39:27 11:43:29 43° 60° (ENE) 11:47:32 437.445
Cosmos 2504 24 Aug 11:40:54 11:48:16 35° 312° (NW) 11:55:12 435.465 / 435.565
ESTCUBE 1 24 Aug 11:44:56 11:47:29 15° 82° (E) 11:50:01 437.505/2401.250
DANDE 24 Aug 11:47:26 11:51:29 73° 70° (ENE) 11:56:57 436.750
AAUSAT CUBESAT 2 24 Aug 11:51:38 11:55:27 36° 301° (WNW) 11:59:15 437.432
CUBEBUG 2 24 Aug 11:52:46 11:56:53 39° 301° (WNW) 12:00:52 437.445
COMPASS 1 24 Aug 11:55:56 11:59:35 30° 305° (NW) 12:03:14 437.405
AO-85 24 Aug 11:57:32 12:02:25 65° 1° (N) 12:06:53 145.980
UWE-3 24 Aug 11:58:29 12:02:37 44° 299° (WNW) 12:06:39 435.000/436.395/437.385
AIST 1 24 Aug 11:58:52 12:03:08 50° 293° (WNW) 12:07:28
Gurwin Techsat 1B 24 Aug 11:59:37 12:03:35 22° 38° (NE) 12:07:32 435.225
Oscar 11 24 Aug 12:00:06 12:04:20 57° 295° (WNW) 12:08:34 145.826/435.025
QB50P2 24 Aug 12:00:36 12:04:54 75° 253° (WSW) 12:09:13 145.880/145.840
FUNcube-1 24 Aug 12:02:23 12:06:33 56° 295° (WNW) 12:10:37 145.935
POLYITAN 1 24 Aug 12:03:09 12:07:27 74° 255° (WSW) 12:11:46 437.675
DUCHIFAT 1 24 Aug 12:03:31 12:07:48 80° 251° (WSW) 12:12:06 145.980
HUMSAT D 24 Aug 12:05:21 12:09:25 58° 103° (ESE) 12:13:27 437.325/437.525
AISAT 24 Aug 12:09:12 12:11:42 14° 82° (E) 12:14:10 437.250
NANOSAT C BR1 24 Aug 12:15:31 12:19:45 63° 256° (WSW) 12:24:01 145.865
ANTELSAT 24 Aug 12:16:06 12:19:32 21° 273° (W) 12:22:57 437.575/2403.000
ZACube-1 24 Aug 12:21:49 12:25:50 40° 300° (WNW) 12:29:45 437.345
AO-7 24 Aug 12:26:27 12:33:31 32° 20° (NNE) 12:40:33 29.400- 29.500
ITAMSAT 1 24 Aug 12:26:36 12:29:51 17° 32° (NNE) 12:33:08 435.822/435.867
DELFI C3 24 Aug 12:27:28 12:31:24 59° 293° (WNW) 12:35:20 145.870
BEESAT 2 24 Aug 12:35:43 12:38:44 21° 125° (SE) 12:41:47 435.950
UKube-1 24 Aug 12:39:00 12:41:20 14° 83° (E) 12:43:40 .
SEEDS 24 Aug 12:45:47 12:48:08 15° 319° (NW) 12:50:28 437.485
CINEMA 3 24 Aug 12:46:46 12:49:20 15° 326° (NW) 12:51:51 145.822/145.860
50 SAT 24 Aug 12:47:20 12:50:11 21° 91° (E) 12:53:01 437.505
AUBIESAT-1 24 Aug 12:49:47 12:53:50 34° 103° (ESE) 12:57:36 437.475
TIGRISAT 24 Aug 12:49:52 12:52:05 13° 280° (W) 12:54:18 435.000
GOMX 1 24 Aug 12:50:09 12:51:21 11° 346° (NNW) 12:52:32 467.674
HO-68 24 Aug 12:51:02 12:57:17 34° 324° (NW) 13:03:32 435.675
Cubesat XI-IV 24 Aug 12:51:20 12:53:07 12° 347° (NNW) 12:54:54 437.490
M-CUBED/EXP-1 PRIME 24 Aug 12:52:02 12:56:18 41° 105° (ESE) 13:00:17 437.505
VELOX 1 24 Aug 12:56:14 13:00:08 28° 93° (E) 13:03:59 145.980
Oscar 19 24 Aug 12:57:11 13:02:14 54° 60° (ENE) 13:07:19 437.125/150
QB50P1 24 Aug 12:58:02 13:01:52 31° 266° (W) 13:05:43 145.935-145.965
YUBILEINY 24 Aug 12:59:40 13:06:07 21° 351° (N) 13:12:31 435.215
RS-15 24 Aug 13:00:01 13:10:33 36° 250° (WSW) 13:21:04 29.354- 29.394
CANX-2 24 Aug 13:00:26 13:01:28 11° 327° (NNW) 13:02:30 2200.000
BEESAT 3 24 Aug 13:00:36 13:04:18 40° 137° (SE) 13:08:02 437.485
Cosmos 2499 24 Aug 13:02:04 13:09:26 43° 87° (E) 13:16:21 435.465 / 435.565
CUTE-I 24 Aug 13:04:30 13:05:59 11° 351° (N) 13:07:27 437.470
CUTE 1.7 + AOD 2 24 Aug 13:07:23 13:08:19 11° 327° (NNW) 13:09:15 437.475
ISS 24 Aug 13:07:41 13:08:29 11° 164° (SSE) 13:09:17 145.825
POPSAT HIP 1 24 Aug 13:07:56 13:11:36 27° 268° (W) 13:15:18 437.405
CUBEBUG 1 24 Aug 13:08:10 13:12:22 38° 97° (E) 13:16:32 437.445
CUSAT 1 24 Aug 13:09:12 13:13:25 24° 272° (W) 13:18:27 437.405
PCSat 24 Aug 13:11:37 13:15:00 17° 109° (ESE) 13:18:25 145.827
NOAA 18 24 Aug 13:11:58 13:14:14 13° 351° (N) 13:16:31 137.9125
GONETS M04 24 Aug 13:12:53 13:21:24 59° 92° (E) 13:30:01
JAS-2 24 Aug 13:13:06 13:18:15 52° 260° (W) 13:23:51 435.910
BUGSAT 1 24 Aug 13:14:51 13:18:55 42° 261° (W) 13:23:01 437.445
DOVE 4 24 Aug 13:16:32 13:17:09 10° 345° (NNW) 13:17:45 437.250
NOAA 15 24 Aug 13:18:04 13:19:11 11° 357° (N) 13:20:20 137.62
ESTCUBE 1 24 Aug 13:20:43 13:25:14 61° 103° (ESE) 13:29:45 437.505/2401.250
DX 1 24 Aug 13:26:21 13:30:23 34° 96° (E) 13:34:24 434.975-435.025
AAUSAT CUBESAT 2 24 Aug 13:28:23 13:29:58 12° 323° (NW) 13:31:33 437.432
CUBEBUG 2 24 Aug 13:30:21 13:32:31 14° 324° (NW) 13:34:39 437.445
DANDE 24 Aug 13:30:33 13:34:05 26° 266° (W) 13:38:32 436.750
COMPASS 1 24 Aug 13:33:12 13:34:03 11° 327° (NNW) 13:34:55 437.405
UWE-3 24 Aug 13:35:51 13:38:12 15° 321° (NW) 13:40:31 435.000/436.395/437.385
Oscar 11 24 Aug 13:36:57 13:39:46 17° 317° (NW) 13:42:35 145.826/435.025
Gurwin Techsat 1B 24 Aug 13:37:30 13:42:43 58° 61° (ENE) 13:47:57 435.225
AO-85 24 Aug 13:38:23 13:43:09 88° 200° (SSW) 13:47:29 145.980
QB50P2 24 Aug 13:38:41 13:41:29 17° 275° (W) 13:44:16 145.880/145.840
Cosmos 2504 24 Aug 13:39:02 13:44:26 19° 342° (NNW) 13:49:36 435.465 / 435.565
AIST 1 24 Aug 13:39:14 13:41:50 15° 317° (NW) 13:44:27
FUNcube-1 24 Aug 13:39:22 13:42:05 17° 317° (NW) 13:44:45 145.935
POLYITAN 1 24 Aug 13:41:15 13:44:01 17° 275° (W) 13:46:48 437.675
HUMSAT D 24 Aug 13:41:17 13:44:54 31° 304° (NW) 13:48:30 437.325/437.525
DUCHIFAT 1 24 Aug 13:41:17 13:44:12 18° 274° (W) 13:47:08 145.980
SPROUT 24 Aug 13:43:25 13:47:29 38° 97° (E) 13:51:30 437.525
AISAT 24 Aug 13:44:38 13:49:07 61° 103° (ESE) 13:53:34 437.250
NANOSAT C BR1 24 Aug 13:54:03 13:56:22 14° 277° (W) 13:58:42 145.865
ZACube-1 24 Aug 13:59:06 14:01:11 13° 323° (NW) 14:03:14 437.345
DELFI C3 24 Aug 14:03:06 14:05:36 16° 315° (NW) 14:08:05 145.870
ITAMSAT 1 24 Aug 14:03:25 14:08:16 42° 55° (NE) 14:13:08 435.822/435.867
BEESAT 2 24 Aug 14:12:04 14:16:01 66° 148° (SSE) 14:20:02 435.950
UKube-1 24 Aug 14:13:57 14:18:18 61° 105° (ESE) 14:22:37 .
TISAT 1 24 Aug 14:16:17 14:19:47 24° 91° (E) 14:23:15 437.305
AIST 2 24 Aug 14:16:34 14:18:54 15° 119° (ESE) 14:21:14 435.215
AO-7 24 Aug 14:16:55 14:24:59 55° 46° (NE) 14:33:03 29.400- 29.500
50 SAT 24 Aug 14:20:32 14:24:10 68° 292° (WNW) 14:27:47 437.505
AUBIESAT-1 24 Aug 14:24:09 14:28:32 57° 305° (NW) 14:32:37 437.475
M-CUBED/EXP-1 PRIME 24 Aug 14:26:33 14:30:58 51° 307° (NW) 14:35:05 437.505
GOMX 1 24 Aug 14:26:37 14:27:19 10° 10° (N) 14:28:00 467.674
Cubesat XI-IV 24 Aug 14:29:30 14:31:12 12° 12° (NNE) 14:32:54 437.490
BRITE-PL 24 Aug 14:29:38 14:31:33 12° 19° (NNE) 14:33:30 437.365/2234.400
VELOX 1 24 Aug 14:32:32 14:37:00 68° 294° (WNW) 14:41:27 145.980
Oscar 19 24 Aug 14:36:51 14:41:45 43° 262° (W) 14:46:44 437.125/150
BEESAT 3 24 Aug 14:37:51 14:41:50 80° 340° (NNW) 14:45:50 437.485
HO-68 24 Aug 14:38:10 14:43:17 22° 349° (N) 14:48:24 435.675
ITUPSAT 1 24 Aug 14:40:39 14:43:04 14° 80° (E) 14:45:28 437.325
CUTE-I 24 Aug 14:42:05 14:44:03 12° 15° (NNE) 14:46:00 437.470
ISS 24 Aug 14:42:20 14:43:54 13° 184° (S) 14:45:28 145.825
CUBEBUG 1 24 Aug 14:44:30 14:48:49 49° 298° (WNW) 14:53:06 437.445
NOAA 18 24 Aug 14:50:15 14:52:57 14° 16° (NNE) 14:55:38 137.9125
PCSat 24 Aug 14:52:08 14:57:23 53° 132° (SE) 15:02:41 145.827
Cosmos 2499 24 Aug 14:54:22 15:02:20 70° 291° (WNW) 15:09:45 435.465 / 435.565
NOAA 15 24 Aug 14:54:33 14:57:02 14° 21° (NNE) 14:59:32 137.62
ESTCUBE 1 24 Aug 14:57:49 15:01:54 34° 305° (NW) 15:06:00 437.505/2401.250
YUBILEINY 24 Aug 14:59:53 15:06:50 25° 24° (NNE) 15:13:45 435.215
JAS-2 24 Aug 15:02:16 15:04:59 14° 286° (WNW) 15:07:48 435.910
DX 1 24 Aug 15:02:30 15:06:50 55° 297° (WNW) 15:11:07 434.975-435.025
GONETS M04 24 Aug 15:09:47 15:18:27 58° 298° (WNW) 15:27:13
SWISSCUBE 24 Aug 15:14:58 15:18:52 24° 89° (E) 15:22:45 437.505
RS-15 24 Aug 15:15:32 15:18:49 11° 279° (W) 15:22:04 29.354- 29.394
Gurwin Techsat 1B 24 Aug 15:17:54 15:22:56 41° 263° (W) 15:27:59 435.225
HUMSAT D 24 Aug 15:18:34 15:19:28 11° 326° (NW) 15:20:22 437.325/437.525
AO-85 24 Aug 15:19:08 15:23:15 33° 229° (SW) 15:27:02 145.980
SPROUT 24 Aug 15:19:25 15:23:35 48° 298° (WNW) 15:27:42 437.525
AISAT 24 Aug 15:21:23 15:25:27 34° 305° (NW) 15:29:29 437.250
BEESAT 24 Aug 15:32:26 15:36:36 29° 93° (E) 15:40:45 436.000
HORYU 2 24 Aug 15:34:13 15:37:45 23° 47° (NE) 15:41:17 437.375
Cosmos 2504 24 Aug 15:36:24 15:41:27 18° 14° (NNE) 15:46:20 435.465 / 435.565
O/OREOS (USA 219) 24 Aug 15:38:14 15:42:01 27° 110° (ESE) 15:45:50 437.305
ITAMSAT 1 24 Aug 15:42:34 15:47:41 59° 257° (WSW) 15:52:51 435.822/435.867
BEESAT 2 24 Aug 15:49:59 15:53:58 64° 350° (N) 15:57:59 435.950
UKube-1 24 Aug 15:50:17 15:54:11 33° 306° (NW) 15:58:05 .
TISAT 1 24 Aug 15:51:39 15:55:54 74° 292° (WNW) 16:00:07 437.305
AIST 2 24 Aug 15:52:34 15:56:34 49° 140° (SE) 16:00:37 435.215
50 SAT 24 Aug 15:54:54 15:57:12 16° 313° (NW) 15:59:30 437.505
AUBIESAT-1 24 Aug 15:58:58 16:02:18 21° 327° (NNW) 16:05:29 437.475
GOMX 1 24 Aug 16:00:06 16:03:31 18° 34° (NE) 16:07:01 467.674
M-CUBED/EXP-1 PRIME 24 Aug 16:01:24 16:04:41 20° 330° (NNW) 16:07:51 437.505
BRITE-PL 24 Aug 16:04:21 16:08:23 24° 43° (NE) 16:12:37 437.365/2234.400
Cubesat XI-IV 24 Aug 16:05:47 16:09:35 20° 36° (NE) 16:13:23 437.490
AO-7 24 Aug 16:09:24 16:17:45 68° 251° (WSW) 16:26:07 29.400- 29.500
VELOX 1 24 Aug 16:09:33 16:12:51 21° 316° (NW) 16:16:09 145.980
LilacSat-2 24 Aug 16:15:36 16:17:02 12° 40° (NE) 16:18:28 437.200
BEESAT 3 24 Aug 16:15:51 16:19:48 60° 2° (N) 16:23:45 437.485
ITUPSAT 1 24 Aug 16:17:17 16:22:00 54° 102° (ESE) 16:26:42 437.325
MOZHAYETS 4 24 Aug 16:18:15 16:21:24 18° 84° (E) 16:24:32
CUTE-I 24 Aug 16:18:27 16:22:29 22° 39° (NE) 16:26:31 437.470
Oscar 19 24 Aug 16:20:58 16:22:32 11° 285° (WNW) 16:24:08 437.125/150
CUBEBUG 1 24 Aug 16:21:31 16:24:17 16° 320° (NW) 16:27:03 437.445
HO-68 24 Aug 16:23:41 16:28:58 23° 15° (NNE) 16:34:13 435.675
DOVE 4 24 Aug 16:25:26 16:28:33 16° 33° (NNE) 16:31:40 437.250
NOAA 18 24 Aug 16:27:37 16:32:04 25° 40° (NE) 16:36:30 137.9125
NOAA 15 24 Aug 16:30:59 16:35:23 28° 45° (NE) 16:39:49 137.62
PCSat 24 Aug 16:35:20 16:40:47 71° 335° (NNW) 16:46:15 145.827
ESTCUBE 1 24 Aug 16:35:37 16:37:38 13° 327° (NNW) 16:39:39 437.505/2401.250
KKS-1 24 Aug 16:38:40 16:41:57 20° 87° (E) 16:45:14 437.445
DX 1 24 Aug 16:39:21 16:42:18 18° 319° (NW) 16:45:13 434.975-435.025
Cosmos 2499 24 Aug 16:50:14 16:56:53 29° 318° (NW) 17:03:11 435.465 / 435.565
SWISSCUBE 24 Aug 16:52:28 16:57:16 85° 290° (WNW) 17:02:02 437.505
SPROUT 24 Aug 16:56:11 16:58:42 15° 320° (NW) 17:01:13 437.525
Cosmos 2491 24 Aug 16:57:31 17:02:04 16° 57° (ENE) 17:06:38 435.465 / 435.565
YUBILEINY 24 Aug 16:57:54 17:06:22 47° 54° (NE) 17:14:45 435.215
AISAT 24 Aug 16:58:50 17:00:51 13° 327° (NNW) 17:02:51 437.250
Gurwin Techsat 1B 24 Aug 17:03:03 17:04:25 11° 286° (WNW) 17:05:49 435.225
HORYU 2 24 Aug 17:09:21 17:13:49 82° 71° (ENE) 17:18:19 437.375
BEESAT 24 Aug 17:10:05 17:14:51 71° 294° (WNW) 17:19:35 436.000
GONETS M04 24 Aug 17:10:08 17:17:29 28° 328° (NNW) 17:24:56
O/OREOS (USA 219) 24 Aug 17:16:30 17:21:03 82° 313° (NW) 17:25:39 437.305
STARS 24 Aug 17:24:15 17:27:55 25° 91° (E) 17:31:33 437.465
ITAMSAT 1 24 Aug 17:25:12 17:28:18 16° 279° (W) 17:31:25 435.822/435.867
UKube-1 24 Aug 17:27:25 17:29:10 12° 328° (NNW) 17:30:55 .
TISAT 1 24 Aug 17:27:51 17:31:00 20° 314° (NW) 17:34:07 437.305
BEESAT 2 24 Aug 17:28:07 17:32:07 68° 12° (NNE) 17:36:09 435.950
CUBESAT XI-V 24 Aug 17:28:45 17:31:28 15° 81° (E) 17:34:10 437.345
AIST 2 24 Aug 17:30:51 17:35:00 74° 342° (NNW) 17:39:12 435.215
Cosmos 2504 24 Aug 17:31:05 17:37:47 32° 45° (NE) 17:44:10 435.465 / 435.565
CINEMA 3 24 Aug 17:32:12 17:35:08 16° 37° (NE) 17:38:04 145.822/145.860
AUBIESAT-1 24 Aug 17:33:37 17:35:27 12° 349° (N) 17:37:13 437.475
GOMX 1 24 Aug 17:35:32 17:40:27 43° 57° (ENE) 17:45:35 467.674
M-CUBED/EXP-1 PRIME 24 Aug 17:35:58 17:37:51 12° 352° (N) 17:39:43 437.505
BRITE-PL 24 Aug 17:41:07 17:46:05 68° 66° (ENE) 17:51:30 437.365/2234.400
CANX-2 24 Aug 17:41:47 17:43:37 13° 37° (NE) 17:45:26 2200.000
Cubesat XI-IV 24 Aug 17:43:34 17:48:45 52° 58° (ENE) 17:53:56 437.490
LilacSat-2 24 Aug 17:46:53 17:50:29 39° 61° (ENE) 17:54:05 437.200
CUTE 1.7 + AOD 2 24 Aug 17:48:33 17:50:26 13° 37° (NE) 17:52:18 437.475
BEESAT 3 24 Aug 17:53:42 17:57:42 88° 203° (SSW) 18:01:42 437.485
MOZHAYETS 4 24 Aug 17:54:46 17:59:22 75° 106° (ESE) 18:03:58
ITUPSAT 1 24 Aug 17:55:21 17:59:49 40° 304° (NW) 18:04:15 437.325
CUTE-I 24 Aug 17:56:30 18:01:46 60° 61° (ENE) 18:07:01 437.470
DOVE 4 24 Aug 18:00:14 18:05:04 38° 55° (NE) 18:09:58 437.250
AO-7 24 Aug 18:05:32 18:12:10 25° 276° (W) 18:18:51 29.400- 29.500
NOAA 18 24 Aug 18:06:32 18:12:03 68° 62° (ENE) 18:17:33 137.9125
HO-68 24 Aug 18:08:37 18:15:06 38° 41° (NE) 18:21:35 435.675
NOAA 15 24 Aug 18:09:22 18:14:39 82° 67° (ENE) 18:19:59 137.62
AAUSAT CUBESAT 2 24 Aug 18:10:16 18:11:00 10° 33° (NNE) 18:11:45 437.432
COMPASS 1 24 Aug 18:13:43 18:15:19 12° 37° (NE) 18:16:56 437.405
KKS-1 24 Aug 18:14:42 18:19:14 84° 109° (ESE) 18:23:43 437.445
CUBEBUG 2 24 Aug 18:14:52 18:16:54 13° 35° (NE) 18:18:55 437.445
PCSat 24 Aug 18:19:27 18:24:48 53° 0° (N) 18:30:09 145.827
UWE-3 24 Aug 18:20:49 18:22:09 11° 32° (NNE) 18:23:28 435.000/436.395/437.385
SWISSCUBE 24 Aug 18:30:42 18:34:36 26° 313° (NW) 18:38:29 437.505
AIST 1 24 Aug 18:40:04 18:41:45 12° 36° (NE) 18:43:26
ZACube-1 24 Aug 18:43:17 18:44:37 11° 33° (NNE) 18:45:58 437.345
HORYU 2 24 Aug 18:47:21 18:50:56 23° 270° (W) 18:54:33 437.375
Cosmos 2499 24 Aug 18:48:18 18:52:59 17° 348° (NNW) 18:57:31 435.465 / 435.565
BEESAT 24 Aug 18:48:21 18:52:02 23° 316° (NW) 18:55:42 436.000
Cosmos 2491 24 Aug 18:48:31 18:56:32 43° 84° (E) 19:04:37 435.465 / 435.565
YUBILEINY 24 Aug 18:55:07 19:03:57 76° 261° (W) 19:12:40 435.215
O/OREOS (USA 219) 24 Aug 18:56:54 19:01:02 33° 336° (NNW) 19:05:13 437.305
STARS 24 Aug 19:00:19 19:04:47 76° 292° (WNW) 19:09:11 437.465
SEEDS 24 Aug 19:00:57 19:04:19 24° 51° (NE) 19:07:42 437.485
CUBESAT XI-V 24 Aug 19:05:09 19:09:50 61° 103° (ESE) 19:14:30 437.345
BEESAT 2 24 Aug 19:06:03 19:10:00 58° 216° (SW) 19:13:57 435.950
AUBIESAT-1 24 Aug 19:06:28 19:08:23 13° 12° (NNE) 19:10:16 437.475
CINEMA 3 24 Aug 19:06:34 19:11:17 42° 59° (ENE) 19:15:55 145.822/145.860
M-CUBED/EXP-1 PRIME 24 Aug 19:08:36 19:10:51 13° 14° (NNE) 19:13:03 437.505
AIST 2 24 Aug 19:09:40 19:13:50 63° 7° (N) 19:18:00 435.215
GONETS M04 24 Aug 19:11:43 19:18:05 21° 0° (N) 19:24:26
GOMX 1 24 Aug 19:13:18 19:18:26 59° 259° (W) 19:23:51 467.674
CANX-2 24 Aug 19:14:37 19:18:31 38° 59° (ENE) 19:22:26 2200.000
BRITE-PL 24 Aug 19:20:30 19:25:01 33° 269° (W) 19:29:53 437.365/2234.400
LilacSat-2 24 Aug 19:21:13 19:24:51 39° 262° (W) 19:28:29 437.200
CUTE 1.7 + AOD 2 24 Aug 19:21:25 19:25:19 38° 59° (ENE) 19:29:15 437.475
Cubesat XI-IV 24 Aug 19:23:49 19:28:59 47° 261° (W) 19:34:10 437.490
Cosmos 2504 24 Aug 19:24:50 19:32:27 81° 73° (ENE) 19:39:39 435.465 / 435.565
BEESAT 3 24 Aug 19:31:33 19:35:05 31° 228° (SW) 19:38:37 437.485
MOZHAYETS 4 24 Aug 19:32:19 19:36:15 29° 308° (NW) 19:40:12
ITUPSAT 1 24 Aug 19:33:54 19:36:38 15° 326° (NNW) 19:39:22 437.325
CUTE-I 24 Aug 19:37:07 19:42:07 39° 264° (W) 19:47:08 437.470
DOVE 4 24 Aug 19:37:20 19:42:33 67° 257° (WSW) 19:47:54 437.250
AAUSAT CUBESAT 2 24 Aug 19:41:48 19:45:23 30° 55° (NE) 19:49:01 437.432
COMPASS 1 24 Aug 19:46:07 19:49:54 36° 59° (ENE) 19:53:43 437.405
NOAA 18 24 Aug 19:48:01 19:53:07 36° 265° (W) 19:58:14 137.9125
CUBEBUG 2 24 Aug 19:48:16 19:52:29 35° 57° (ENE) 19:56:36 437.445
NOAA 15 24 Aug 19:50:32 19:55:03 28° 269° (W) 19:59:36 137.62
KKS-1 24 Aug 19:51:40 19:55:26 27° 310° (NW) 19:59:11 437.445
UWE-3 24 Aug 19:53:32 19:57:29 30° 54° (NE) 20:01:20 435.000/436.395/437.385
Oscar 11 24 Aug 19:54:16 19:57:41 24° 50° (NE) 20:01:08 145.826/435.025
HO-68 24 Aug 19:55:03 20:02:17 87° 64° (ENE) 20:09:33 435.675
FUNcube-1 24 Aug 19:56:56 20:00:26 24° 50° (NE) 20:03:54 145.935
HUMSAT D 24 Aug 19:59:27 20:00:58 12° 36° (NE) 20:02:29 437.325/437.525
PCSat 24 Aug 20:03:20 20:08:48 71° 25° (NNE) 20:14:15 145.827
SWISSCUBE 24 Aug 20:09:35 20:11:03 11° 336° (NNW) 20:12:30 437.505
DELFI C3 24 Aug 20:15:40 20:18:23 18° 47° (NE) 20:21:07 145.870
ZACube-1 24 Aug 20:15:56 20:19:49 31° 55° (NE) 20:23:39 437.345
AIST 1 24 Aug 20:16:38 20:20:44 35° 61° (ENE) 20:24:49
BEESAT 24 Aug 20:27:32 20:28:22 10° 339° (NNW) 20:29:13 436.000
SEEDS 24 Aug 20:35:29 20:39:39 83° 251° (WSW) 20:43:52 437.485
STARS 24 Aug 20:37:12 20:40:36 22° 314° (NW) 20:44:00 437.465
O/OREOS (USA 219) 24 Aug 20:37:50 20:41:38 25° 1° (N) 20:45:28 437.305
AUBIESAT-1 24 Aug 20:38:04 20:41:33 22° 34° (NE) 20:44:59 437.475
STRAND 1 24 Aug 20:39:44 20:44:32 39° 96° (E) 20:49:18 437.568
M-CUBED/EXP-1 PRIME 24 Aug 20:40:23 20:44:09 24° 36° (NE) 20:47:50 437.505
CUBESAT XI-V 24 Aug 20:42:49 20:47:05 35° 304° (NW) 20:51:21 437.345
CINEMA 3 24 Aug 20:43:27 20:48:23 54° 260° (W) 20:53:15 145.822/145.860
Cosmos 2491 24 Aug 20:44:13 20:52:58 76° 290° (WNW) 21:01:50 435.465 / 435.565
BEESAT 2 24 Aug 20:44:27 20:47:12 18° 237° (WSW) 20:49:57 435.950
Cosmos 2499 24 Aug 20:44:43 20:49:40 19° 20° (NNE) 20:54:28 435.465 / 435.565
AIST 2 24 Aug 20:48:18 20:52:30 78° 208° (SSW) 20:56:42 435.215
CANX-2 24 Aug 20:50:16 20:54:21 48° 260° (W) 20:58:28 2200.000
YUBILEINY 24 Aug 20:52:25 20:59:31 29° 287° (WNW) 21:06:35 435.215
GOMX 1 24 Aug 20:54:25 20:57:43 17° 282° (WNW) 21:01:06 467.674
VELOX 1 24 Aug 20:56:35 20:57:05 10° 26° (NNE) 20:57:35 145.980
CUTE 1.7 + AOD 2 24 Aug 20:57:05 21:01:10 47° 261° (W) 21:05:16 437.475
CUBEBUG 1 24 Aug 21:06:23 21:07:49 11° 30° (NNE) 21:09:14 437.445
Cubesat XI-IV 24 Aug 21:08:07 21:10:28 13° 283° (WNW) 21:12:47 437.490
MOZHAYETS 4 24 Aug 21:10:42 21:12:13 12° 330° (NNW) 21:13:44
GONETS M04 24 Aug 21:11:12 21:18:39 28° 33° (NNE) 21:26:04
AAUSAT CUBESAT 2 24 Aug 21:16:36 21:20:41 62° 256° (WSW) 21:24:49 437.432
DOVE 4 24 Aug 21:17:36 21:21:15 19° 279° (W) 21:24:57 437.250
Cosmos 2504 24 Aug 21:18:39 21:25:15 35° 278° (W) 21:31:35 435.465 / 435.565
ESTCUBE 1 24 Aug 21:20:03 21:22:43 16° 38° (NE) 21:25:23 437.505/2401.250
COMPASS 1 24 Aug 21:21:25 21:25:26 49° 260° (W) 21:29:29 437.405
CUTE-I 24 Aug 21:22:55 21:23:45 10° 287° (WNW) 21:24:35 437.470
CUBEBUG 2 24 Aug 21:24:21 21:28:59 60° 257° (WSW) 21:33:30 437.445
DX 1 24 Aug 21:24:22 21:25:41 11° 29° (NNE) 21:27:00 434.975-435.025
Oscar 11 24 Aug 21:29:04 21:33:24 89° 68° (ENE) 21:37:45 145.826/435.025
UWE-3 24 Aug 21:29:08 21:33:42 71° 255° (WSW) 21:38:10 435.000/436.395/437.385
KKS-1 24 Aug 21:29:35 21:30:46 11° 333° (NNW) 21:31:56 437.445
FUNcube-1 24 Aug 21:31:50 21:36:17 89° 65° (ENE) 21:40:38 145.935
HUMSAT D 24 Aug 21:31:50 21:35:38 35° 58° (ENE) 21:39:24 437.325/437.525
SPROUT 24 Aug 21:40:23 21:41:12 10° 30° (NNE) 21:42:02 437.525
AISAT 24 Aug 21:42:19 21:44:59 16° 38° (NE) 21:47:39 437.250
HO-68 24 Aug 21:44:23 21:50:51 34° 269° (W) 21:57:20 435.675
PCSat 24 Aug 21:46:54 21:52:11 52° 229° (SW) 21:57:25 145.827
DELFI C3 24 Aug 21:48:45 21:52:40 70° 68° (ENE) 21:56:38 145.870
ZACube-1 24 Aug 21:51:30 21:55:56 65° 257° (WSW) 22:00:17 437.345
PRISM 24 Aug 21:53:21 21:56:57 27° 93° (E) 22:00:31 437.425
AIST 1 24 Aug 21:54:15 21:58:34 52° 263° (W) 22:02:52
50 SAT 24 Aug 22:03:22 22:05:06 13° 43° (NE) 22:06:51 437.505
UKube-1 24 Aug 22:09:36 22:12:06 15° 38° (NE) 22:14:37 .
AUBIESAT-1 24 Aug 22:10:46 22:15:20 56° 55° (NE) 22:19:50 437.475
SEEDS 24 Aug 22:13:09 22:16:02 18° 274° (W) 22:18:56 437.485
M-CUBED/EXP-1 PRIME 24 Aug 22:13:22 22:18:03 65° 57° (ENE) 22:22:42 437.505
O/OREOS (USA 219) 24 Aug 22:17:58 22:22:12 35° 26° (NNE) 22:26:26 437.305
STRAND 1 24 Aug 22:18:57 22:23:59 58° 298° (WNW) 22:29:00 437.568
ANTELSAT 24 Aug 22:20:30 22:21:20 10° 77° (ENE) 22:22:09 437.575/2403.000
CUBESAT XI-V 24 Aug 22:21:07 22:23:23 14° 327° (NNW) 22:25:38 437.345
CINEMA 3 24 Aug 22:23:54 22:26:36 14° 281° (WNW) 22:29:17 145.822/145.860
AIST 2 24 Aug 22:27:03 22:30:35 27° 231° (SW) 22:34:07 435.215
VELOX 1 24 Aug 22:28:38 22:32:14 25° 48° (NE) 22:35:52 145.980
CANX-2 24 Aug 22:30:22 22:31:18 11° 282° (WNW) 22:32:14 2200.000
CUTE 1.7 + AOD 2 24 Aug 22:37:22 22:38:06 10° 282° (WNW) 22:38:50 437.475
Cosmos 2499 24 Aug 22:38:42 22:45:23 36° 50° (NE) 22:51:51 435.465 / 435.565
CUBEBUG 1 24 Aug 22:39:06 22:42:56 29° 53° (NE) 22:46:47 437.445
Cosmos 2491 24 Aug 22:43:37 22:51:24 34° 318° (NW) 22:59:18 435.465 / 435.565
TIGRISAT 24 Aug 22:50:57 22:53:48 17° 84° (E) 22:56:36 435.000
ESTCUBE 1 24 Aug 22:54:21 22:58:38 45° 60° (ENE) 23:02:57 437.505/2401.250
AAUSAT CUBESAT 2 24 Aug 22:54:59 22:57:03 13° 278° (W) 22:59:08 437.432
DX 1 24 Aug 22:56:56 23:00:42 28° 51° (NE) 23:04:29 434.975-435.025
COMPASS 1 24 Aug 23:01:02 23:02:02 11° 282° (WNW) 23:03:02 437.405
CUBEBUG 2 24 Aug 23:03:55 23:06:32 15° 279° (W) 23:09:07 437.445
Oscar 11 24 Aug 23:06:56 23:10:09 20° 273° (W) 23:13:24 145.826/435.025
HUMSAT D 24 Aug 23:07:09 23:11:12 50° 259° (W) 23:15:15 437.325/437.525
UWE-3 24 Aug 23:08:01 23:10:57 17° 276° (W) 23:13:52 435.000/436.395/437.385
GONETS M04 24 Aug 23:08:54 23:17:41 59° 62° (ENE) 23:26:25
FUNcube-1 24 Aug 23:09:45 23:13:07 21° 272° (W) 23:16:26 145.935
SPROUT 24 Aug 23:12:17 23:15:58 28° 53° (NE) 23:19:39 437.525
Cosmos 2504 24 Aug 23:14:32 23:16:15 11° 305° (NW) 23:17:56 435.465 / 435.565
AISAT 24 Aug 23:16:18 23:20:35 46° 60° (ENE) 23:24:53 437.250
UNISAT 6 24 Aug 23:18:02 23:21:46 26° 91° (E) 23:25:25 437.425
SWISSCUBE 24 Aug 23:21:23 23:22:53 11° 24° (NNE) 23:24:23 437.505
DELFI C3 24 Aug 23:24:46 23:27:57 23° 270° (W) 23:31:09 145.870
PRISM 24 Aug 23:28:27 23:32:37 65° 294° (WNW) 23:36:46 437.425
ZACube-1 24 Aug 23:30:29 23:33:04 15° 277° (W) 23:35:38 437.345
PCSat 24 Aug 23:31:12 23:34:32 17° 251° (WSW) 23:37:51 145.827
AIST 1 24 Aug 23:33:31 23:35:14 12° 285° (WNW) 23:36:56
50 SAT 24 Aug 23:34:31 23:37:59 50° 65° (ENE) 23:41:31 437.505
QB50P2 24 Aug 23:36:47 23:37:34 10° 78° (ENE) 23:38:21 145.880/145.840
BEESAT 24 Aug 23:38:13 23:40:12 13° 27° (NNE) 23:42:11 436.000
POLYITAN 1 24 Aug 23:39:17 23:40:07 10° 78° (ENE) 23:40:57 437.675
HO-68 24 Aug 23:40:27 23:41:07 10° 294° (WNW) 23:41:47 435.675
UKube-1 24 Aug 23:43:09 23:47:17 45° 60° (ENE) 23:51:28 .
TISAT 1 24 Aug 23:43:59 23:47:06 20° 46° (NE) 23:50:13 437.305
AUBIESAT-1 24 Aug 23:45:35 23:49:57 39° 255° (WSW) 23:54:18 437.475
M-CUBED/EXP-1 PRIME 24 Aug 23:48:32 23:52:51 34° 257° (WSW) 23:57:08 437.505
NANOSAT C BR1 24 Aug 23:50:17 23:52:02 12° 80° (E) 23:53:46 145.865
ANTELSAT 24 Aug 23:54:59 23:59:14 46° 99° (E) 00:03:23 437.575/2403.000
O/OREOS (USA 219) 24 Aug 23:57:30 00:02:07 90° 16° (NNE) 00:06:44 437.305
STRAND 1 24 Aug 23:58:38 00:02:23 21° 321° (NW) 00:06:08 437.568
VELOX 1 25 Aug 00:03:48 00:08:16 88° 70° (ENE) 00:12:47 145.980
